Regional Weather Roundup
Issued by NWS

Home | Current Version | Previous Version | Text Only | Print | Product List | Glossary Off
Versions: 1 2 3 4 5 6 7 8 9 10 11 12 13 14 15 16 17 18 19 20 21 22 23 24 25 26 27 28 29 30 31 32 33 34 35 36 37 38 39 40 41 42 43 44 45 46 47 48 49 50

000
ASUS43 KIND 170809
RWRIN

WEATHER ROUNDUP FOR INDIANA
NATIONAL WEATHER SERVICE INDIANAPOLIS IN
300 AM EST SUN DEC 17 2017

NOTE: "FAIR" INDICATES FEW OR NO CLOUDS BELOW 12,000 FEET WITH NO
SIGNIFICANT WEATHER AND/OR OBSTRUCTIONS TO VISIBILITY.

* - STATION DOES NOT REPORT WEATHER SUCH AS PRECIPITATION OR FOG.

+ - STATION NOT QUALITY CONTROLLED BY THE NATIONAL WEATHER SERVICE.
    USE DATA WITH CAUTION...ESPECIALLY DEWPOINT AND RELATIVE
    HUMIDITY OBSERVATIONS.

INZ001>003-010>013-019-020-170900-
NORTHWEST INDIANA

CITY           SKY/WX    TMP DP  RH WIND       PRES   REMARKS
GARY /AIRPORT/ CLOUDY    29  27  92 CALM      30.07R
KNOX *+        CLOUDY    30  28  93 CALM      30.07R
LA PORTE +     CLOUDY    22  21  95 CALM      30.07R FOG
MICHIGAN CITY+ CLOUDY    28  28 100 CALM      30.07R
MONTICELLO +   PTCLDY    35  27  73 S5        30.08R WCI  31
RENSSELAER +   CLOUDY    30  25  80 CALM      30.08R
VALPARAISO     CLOUDY    32  26  78 S3        30.07R

$$

LMZ046-743>745-170900-
SOUTHERN LAKE MICHIGAN

STATION/POSITION TIME  TEMP    WIND        PRES    WAVE
                       AIR SEA DIR/SP/G            HT
                 (UTC) (F)     (DEG/KT/KT) (MB)    (FT)
BURNS HARBOR     0740   36      CALM  /  2 1018.3S
MICHIGAN CITY    0740   35      60/  2/  3   N/A

$$

INZ004-005-014>016-021>024-170900-
NORTH CENTRAL INDIANA

CITY           SKY/WX    TMP DP  RH WIND       PRES   REMARKS
GOSHEN         PTCLDY    29  25  85 E5        30.08R WCI  24
LOGANSPORT +   CLOUDY    30  27  86 S3        30.10R
PERU/GRISSOM   CLOUDY    33  28  81 S5        30.08R WCI  29
ROCHESTER +    CLOUDY    34  30  86 SE3       30.09R
SOUTH BEND     CLOUDY    26  25  96 CALM      30.08R
WARSAW +       PTCLDY    32  28  86 CALM      30.08R

$$

INZ006>009-017-018-025>027-170900-
NORTHEAST INDIANA

CITY           SKY/WX    TMP DP  RH WIND       PRES   REMARKS
AUBURN +       FOG       28  27  93 E5        30.11S VSB 3/4 WCI  23
FORT WAYNE     CLOUDY    27  24  89 E3        30.11R
HUNTINGTON +   PTCLDY    30  26  85 CALM      30.10R

$$

INZ028-029-035-036-043>045-051>053-170900-
WEST CENTRAL INDIANA

CITY           SKY/WX    TMP DP  RH WIND       PRES   REMARKS
CRAWFORDSVL +  PTCLDY    35  28  76 S9        30.10R WCI  28
GREENCASTLE +  PTCLDY    39  28  65 S5        30.12R WCI  36
LAFAYETTE      CLOUDY    36  29  75 CALM      30.08S
TERRE HAUTE    PTCLDY    39  29  67 S7        30.12R WCI  34

$$

INZ030>032-037>040-046>048-054>057-064-065-170900-
CENTRAL INDIANA

CITY           SKY/WX    TMP DP  RH WIND       PRES   REMARKS
FRANKFORT +    PTCLDY    38  30  75 SW7       30.10R WCI  32
GREENWOOD *+   CLOUDY    39  31  73 S6        30.13R WCI  35
INDIANAPOLIS   CLOUDY    37  29  72 S8        30.12R WCI  31
-EAGLE CREEK   CLOUDY    40  28  62 S6        30.11R WCI  36
KOKOMO +       PTCLDY    35  28  75 S7        30.10R WCI  29
MARION +       CLOUDY    32  27  81 S6        30.11R WCI  26
MT COMFORT *+  PTCLDY    34  30  86 S7        30.12R WCI  28
SHELBYVILLE    PTCLDY    38  27  64 S9        30.12S WCI  31
ZIONSVILLE +   PTCLDY    37  29  73 S9        30.10R WCI  30

$$

INZ033-034-041-042-049-050-058-059-170900-
EAST CENTRAL INDIANA

CITY           SKY/WX    TMP DP  RH WIND       PRES   REMARKS
MUNCIE         CLOUDY    38  27  64 SW8       30.10R WCI  32
RICHMOND +     PTCLDY    30  28  93 S7        30.13R WCI  23

$$

INZ060-061-067>069-081>083-085>088-170900-
SOUTHWEST INDIANA

CITY           SKY/WX    TMP DP  RH WIND       PRES   REMARKS
EVANSVILLE     CLOUDY    42  31  64 CALM      30.17R
HUNTINGBURG +  CLOUDY    41  31  67 S6        30.16S
WASHINGTON +   PTCLDY    40  28  62 S9        30.16R WCI  34

$$

INZ062-063-066-070>080-084-089>092-170900-
SOUTH CENTRAL AND SOUTHEAST INDIANA

CITY           SKY/WX    TMP DP  RH WIND       PRES   REMARKS
BEDFORD +      CLOUDY    39  28  65 S5        30.15R WCI  36
BLOOMINGTON    CLOUDY    42  28  57 SW8       30.14R
MADISON *+     CLOUDY    37  30  75 S3        30.19R
NORTH VERNON + PTCLDY    36  27  69 S8        30.16R WCI  29
SEYMOUR +      CLOUDY    37  27  65 S5        30.16R WCI  34

$$





USA.gov is the U.S. government's official web portal to all federal, state and local government web resources and services.